Tracking 29511 objects as of 17-Sep-2024
HD Live streaming from Space Station
objects crossing your sky now

STARLINK-30323

Track STARLINK-30323 now!
10-day predictions
STARLINK-30323 is classified as:


NORAD ID: 57634
Int'l Code: 2023-122C
Perigee: 565.3 km
Apogee: 567.1 km
Inclination: 43.0 °
Period: 95.8 minutes
Semi major axis: 6937 km
RCS: Unknown
Launch date: August 17, 2023
Source: United States (US)
Launch site: AIR FORCE EASTERN TEST RANGE (AFETR)
Your satellite tracking list
Your tracking list is empty




NASA's NSSDC Master Catalog

Two Line Element Set (TLE):
1 57634U 23122C   24261.05384101  .00004086  00000-0  31733-3 0  9990
2 57634  43.0025 128.1366 0001259 290.3766  69.6941 15.02539804 61298
Source of the keplerian elements: AFSPC